{"data":{"norad_id":68331,"intl_designator":"2026-059L","name":"STARLINK-36932","alt_names":[],"object_type":"PAYLOAD","status":"ACTIVE","operator":null,"country":"US","launch_date":"2026-03-22","launch_site_code":"AFETR","launch_vehicle":null,"mission":null,"orbit_class":"UNKNOWN","rcs_meters":null,"size_class":null,"mass_kg":null,"dimensions":null,"purposes":["comms"],"wikipedia_slug":null,"has_3d_model":false,"image_url":null,"decayed_at":null,"tle_current":{"epoch":"2026-09-20T00:17:58.405056Z","epoch_age_seconds":91957,"freshness":"FRESH","line1":"1 68331U 26059L   26263.01248154  .00011937  00000+0  36383-3 0  9993","line2":"2 68331  53.1560 158.0923 0001009  78.9642 281.1474 15.34403653 28031","mean_motion":15.34403653,"eccentricity":0.0001009,"inclination_deg":53.156,"raan_deg":158.0923,"arg_perigee_deg":78.9642,"mean_anomaly_deg":281.1474,"bstar":0.00036383,"rev_number":2803,"period_min":93.847534655211,"perigee_km":462.00214305809,"apogee_km":463.38262242753,"semimajor_km":6840.8293827428,"source":"CELESTRAK","updated_at":"2026-09-20T09:00:43.885795Z"}}}